Home   Weather   Hattiesburg   Past weeks
Flag for USA

Past Weather in Hattiesburg, Mississippi, USA — Yesterday and Last 2 Weeks

Now
54 °F

Low clouds.


Feels Like: 54 °F
Forecast: 56 / 49 °F
Wind: No wind

Location: Bobby L Chain Municipal Airport

Current Time: Feb 16, 2020 at 3:59:34 pm

Latest Report: Feb 16, 2020 at 2:53 pm


Visibility: 10 mi

Pressure: 30.03 "Hg

Humidity: 93%

Dew Point: 52 °F

Location of HattiesburgLocation

Past Weather in Hattiesburg — Graph

°F

Hattiesburg Temperature Yesterday

Maximum temperature yesterday: 66 °F (at 2:53 pm)
Minimum temperature yesterday: 30 °F (at 4:53 am)
Average temperature yesterday: 49 °F

High & Low Weather Summary for the Past Weeks

 TemperatureHumidityPressure
High78 °F (Feb 11, 12:53 pm)100% (Feb 12, 7:17 am)30.45 "Hg (Feb 12, 7:17 am)
Low30 °F (Feb 15, 4:53 am)23% (Feb 15, 2:53 pm)29.52 "Hg (Feb 6, 1:53 am)
Average57 °F77%30.05 "Hg
* Reported Feb 1 2:53 pm — Feb 16 2:37 pm, Hattiesburg. Weather by CustomWeather, © 2020

Note: Actual official high and low records may vary slightly from our data, if they occured in-between our weather recording intervals... More about our weather records

Hattiesburg Weather History for the Previous 24 Hours

Scroll right to see more
 ConditionsComfort  
Time TempWeatherWind HumidityBarometerVisibility
2:37 pm
Sun, Feb 16
54 °FLow clouds.3 mph93%30.04 "Hg10 mi
2:10 pm53 °FLow clouds.6 mph96%30.03 "Hg10 mi
1:53 pm53 °FLow clouds.5 mph96%30.04 "Hg10 mi
1:19 pm53 °FFog.7 mph93%30.05 "Hg5 mi
12:53 pm53 °FFog.5 mph93%30.06 "Hg3 mi
12:19 pm52 °FLight rain. Fog.5 mph93%30.09 "Hg2 mi
12:04 pm52 °FLight rain. Fog.3 mph93%30.10 "Hg2 mi
11:53 am51 °FFog.5 mph96%30.11 "Hg4 mi
11:23 am51 °FLow clouds.8 mph92%30.12 "Hg10 mi
10:53 am50 °FLight rain. Low clouds.6 mph96%30.13 "Hg7 mi
10:43 am50 °FLight rain. Fog.8 mph93%30.13 "Hg5 mi
10:20 am49 °FLight rain. Fog.6 mph93%30.15 "Hg2 mi
10:02 am49 °FRain. Fog.6 mph93%30.15 "Hg2 mi
9:23 am49 °FHeavy rain. Fog.6 mph93%30.18 "Hg2 mi
8:53 am48 °FLight rain. Fog.7 mph93%30.15 "Hg6 mi
8:33 am48 °FLight rain. Fog.7 mph93%30.16 "Hg3 mi
8:20 am48 °FRain. Fog.3 mph96%30.18 "Hg2 mi
7:53 am48 °FLight rain. Low clouds.6 mph96%30.15 "Hg10 mi
7:21 am49 °FLight rain. Low clouds.9 mph93%30.14 "Hg9 mi
6:55 am49 °FLight rain. Fog.5 mph97%30.16 "Hg4 mi
6:20 am50 °FLight rain. Mostly cloudy.3 mph93%30.16 "Hg8 mi
5:53 am50 °FHeavy rain. Fog.7 mph93%30.15 "Hg6 mi
4:53 am50 °FHeavy rain. Fog.7 mph93%30.16 "Hg6 mi
3:53 am51 °FRain. Mostly cloudy.5 mph89%30.17 "Hg8 mi
2:53 am53 °FLight rain. Overcast.3 mph72%30.14 "Hg10 mi
1:53 am53 °FOvercast.5 mph66%30.12 "Hg10 mi
12:53 am54 °FOvercast.No wind62%30.17 "Hg10 mi
11:53 pm
Sat, Feb 15
54 °FOvercast.No wind64%30.19 "Hg10 mi
10:53 pm53 °FOvercast.No wind61%30.21 "Hg10 mi
9:53 pm54 °FMostly cloudy.3 mph53%30.23 "Hg10 mi
8:53 pm56 °FOvercast.3 mph46%30.25 "Hg10 mi
7:53 pm57 °FOvercast.8 mph44%30.24 "Hg10 mi
6:53 pm57 °FPassing clouds.8 mph46%30.24 "Hg10 mi
5:53 pm58 °FPassing clouds.3 mph44%30.24 "Hg10 mi
4:53 pm64 °FSunny.8 mph26%30.24 "Hg10 mi
3:53 pm65 °FSunny.7 mph24%30.24 "Hg10 mi
Weather by CustomWeather, © 2020

See weather overview

Advertising